DW6440 Weather Reports


Display with metric or nautical units.
time (UTC)temp
F
wind
direction
speed
MPH
gust
MPH
rain 1hr
in
rain 24hr
in
rain mn
in
humidity
%
barometer
mb
20260507040742 56 323 2.0 8.0 0.03 0.37 0.00 89 1009.7
20260507040015 56 306 3.0 8.0 0.04 0.37 0.00 89 1009.4
20260507035514 56 340 5.0 16.0 0.04 0.37 0.37 89 1009.2
20260507035020 56 254 6.0 16.0 0.04 0.37 0.37 89 1009.2
20260507034513 56 333 6.0 15.0 0.04 0.37 0.37 90 1009.3
20260507034143 57 333 4.0 14.0 0.04 0.37 0.37 90 1010.1
20260507033507 58 311 2.0 10.0 0.04 0.37 0.37 90 1009.9
20260507033008 58 317 1.0 4.0 0.04 0.37 0.37 90 1009.6
20260507032731 58 317 2.0 5.0 0.04 0.37 0.37 90 1009.5
20260507032008 58 318 2.0 7.0 0.05 0.36 0.36 90 1009.3
20260507031507 58 316 1.0 7.0 0.05 0.36 0.36 90 1009.4
20260507031005 58 272 1.0 4.0 0.04 0.35 0.36 90 1009.4
20260507030726 58 263 2.0 8.0 0.03 0.34 0.34 90 1009.5
20260507030005 58 315 3.0 8.0 0.03 0.33 0.33 90 1009.5
20260507025505 58 350 3.0 8.0 0.03 0.33 0.33 90 1009.2
20260507025004 58 321 3.0 11.0 0.04 0.33 0.33 90 1009.1
20260507024504 58 308 3.0 11.0 0.04 0.33 0.33 90 1009.0
20260507024228 59 325 3.0 11.0 0.04 0.33 0.33 90 1008.9
20260507023726 59 309 2.0 5.0 0.04 0.33 0.33 90 1009.2
20260507023018 59 336 1.0 4.0 0.05 0.33 0.33 90 1009.0
20260507022504 59 271 1.0 4.0 0.05 0.33 0.33 90 1009.1
20260507022006 59 293 1.0 3.0 0.04 0.31 0.31 90 1009.1
20260507021504 59 310 2.0 5.0 0.05 0.31 0.31 90 1009.2
20260507021004 59 326 2.0 8.0 0.08 0.31 0.31 90 1009.0
20260507020505 59 302 2.0 8.0 0.11 0.31 0.31 89 1009.3
20260507020227 60 290 3.0 12.0 0.10 0.30 0.30 89 1009.3
20260507015723 60 288 4.0 12.0 0.10 0.30 0.30 89 1009.5
20260507015234 60 332 5.0 12.0 0.09 0.29 0.29 88 1009.3
20260507014503 60 325 5.0 16.0 0.09 0.29 0.29 89 1009.5
20260507014223 61 303 5.0 16.0 0.09 0.29 0.29 89 1009.6
20260507013502 62 327 5.0 11.0 0.09 0.29 0.29 89 1009.4
20260507013226 63 320 3.0 11.0 0.08 0.28 0.28 90 1009.3
20260507012502 64 270 2.0 6.0 0.08 0.28 0.28 90 1009.2
20260507012004 64 265 2.0 9.0 0.07 0.27 0.27 89 1009.2
20260507011501 64 267 2.0 9.0 0.06 0.26 0.26 90 1009.0
20260507011003 64 343 1.0 6.0 0.03 0.23 0.24 89 1009.0
20260507010729 65 216 0.0 3.0 0.00 0.20 0.20 89 1008.8
20260507010217 65 216 0.0 1.0 0.00 0.20 0.20 89 1008.5
20260507005447 65 216 0.0 1.0 0.00 0.20 0.20 89 1008.5
20260507004944 65 216 0.0 1.0 0.00 0.20 0.20 88 1008.7
20260507004437 65 216 0.0 1.0 0.00 0.20 0.20 88 1008.6
20260507003927 65 216 0.0 1.0 0.00 0.20 0.20 88 1008.7
20260507003428 65 215 0.0 2.0 0.00 0.20 0.20 88 1008.5
20260507003143 65 215 0.0 2.0 0.00 0.20 0.20 87 1008.5
20260507002415 65 215 0.0 2.0 0.00 0.20 0.20 87 1008.4
20260507001920 65 215 0.0 2.0 0.00 0.20 0.20 87 1008.1
20260507001402 65 215 0.0 2.0 0.00 0.20 0.20 87 1008.0
20260507000855 65 215 0.0 2.0 0.00 0.20 0.20 87 1007.9
20260507000353 65 215 0.0 2.0 0.00 0.20 0.20 87 1007.8
20260507000105 65 215 0.0 3.0 0.00 0.20 0.20 87 1007.8
20260506235339 66 214 0.0 3.0 0.00 0.20 0.20 87 1007.8
20260506234831 66 215 0.0 3.0 0.00 0.20 0.20 86 1007.8
20260506234325 66 215 1.0 5.0 0.00 0.20 0.20 86 1007.5
20260506233821 66 215 1.0 5.0 0.00 0.20 0.20 86 1007.6
20260506233535 66 120 1.0 6.0 0.00 0.20 0.20 86 1007.7
20260506232820 66 194 1.0 6.0 0.00 0.20 0.20 86 1007.7
20260506232301 66 172 2.0 7.0 0.00 0.20 0.20 85 1007.6
20260506232246 66 171 2.0 7.0 0.00 0.20 0.20 85 1007.7
20260506231300 67 194 2.0 5.0 0.00 0.20 0.20 84 1007.7
20260506230741 67 192 3.0 9.0 0.00 0.20 0.20 84 1007.6
20260506230242 67 159 2.0 9.0 0.00 0.20 0.20 84 1007.5
20260506225730 67 159 3.0 7.0 0.00 0.20 0.20 84 1007.5
20260506225224 67 170 3.0 7.0 0.00 0.20 0.20 83 1007.5
20260506224718 67 171 2.0 6.0 0.00 0.20 0.20 83 1007.6
20260506224215 68 222 3.0 8.0 0.00 0.20 0.20 83 1007.6
20260506223707 68 213 3.0 8.0 0.00 0.20 0.20 82 1007.5
20260506223201 68 209 2.0 7.0 0.00 0.20 0.20 82 1007.5
20260506222916 69 176 2.0 6.0 0.00 0.20 0.20 81 1007.5
20260506222149 69 167 1.0 6.0 0.00 0.20 0.20 82 1007.5
20260506221643 69 211 2.0 7.0 0.00 0.20 0.20 81 1007.3
20260506221137 68 201 2.0 7.0 0.00 0.20 0.20 81 1007.3
20260506220628 68 202 2.0 6.0 0.00 0.20 0.20 82 1007.5
20260506220125 68 196 2.0 6.0 0.00 0.20 0.20 81 1007.5
20260506215839 68 217 2.0 6.0 0.00 0.20 0.20 81 1007.3
20260506215112 68 219 2.0 6.0 0.00 0.20 0.20 81 1007.3
20260506214606 68 246 3.0 8.0 0.00 0.20 0.20 81 1007.2
20260506214059 68 150 3.0 8.0 0.00 0.20 0.20 81 1007.0
20260506213553 68 198 2.0 6.0 0.00 0.20 0.20 82 1007.0
20260506213049 68 201 3.0 8.0 0.00 0.20 0.20 81 1007.1
20260506212542 68 229 4.0 8.0 0.00 0.20 0.20 81 1007.1
20260506212037 68 234 3.0 8.0 0.00 0.20 0.20 81 1007.1
20260506211532 68 181 3.0 7.0 0.00 0.20 0.20 82 1006.9
20260506211037 68 223 2.0 7.0 0.00 0.20 0.20 83 1006.8
20260506210736 67 213 2.0 7.0 0.00 0.20 0.20 84 1007.0
20260506210011 67 200 3.0 8.0 0.00 0.20 0.20 84 1007.0
20260506205505 67 208 4.0 8.0 0.00 0.20 0.20 84 1006.9
20260506204959 67 192 4.0 10.0 0.00 0.20 0.20 83 1006.9
20260506204939 67 248 5.0 11.0 0.00 0.20 0.20 83 1006.9
20260506203949 67 212 5.0 12.0 0.00 0.20 0.20 83 1006.9
20260506203700 67 151 3.0 10.0 0.00 0.20 0.20 83 1006.9
20260506202936 67 202 3.0 9.0 0.00 0.20 0.20 83 1006.9
20260506202430 67 205 5.0 12.0 0.00 0.20 0.20 83 1006.8
20260506201923 67 156 5.0 12.0 0.00 0.20 0.20 83 1006.7
20260506201417 67 229 4.0 9.0 0.00 0.20 0.20 84 1006.8
20260506200913 66 196 4.0 11.0 0.00 0.20 0.20 84 1006.7
20260506200845 66 238 4.0 12.0 0.00 0.20 0.20 84 1006.8
20260506195901 66 205 4.0 12.0 0.00 0.20 0.20 84 1006.9
20260506195356 66 254 4.0 10.0 0.00 0.20 0.20 85 1006.9
20260506194855 66 202 5.0 10.0 0.00 0.20 0.20 84 1006.9
20260506194358 66 211 4.0 10.0 0.00 0.20 0.20 85 1007.1
20260506193855 66 210 5.0 11.0 0.00 0.20 0.20 85 1007.1
20260506193401 65 225 6.0 13.0 0.00 0.20 0.20 86 1007.2
20260506192858 65 218 5.0 13.0 0.00 0.20 0.20 85 1007.2
20260506192618 65 232 5.0 15.0 0.00 0.20 0.20 86 1007.1
20260506191856 65 223 5.0 15.0 0.00 0.20 0.20 86 1007.2
20260506191355 65 222 5.0 15.0 0.00 0.20 0.20 87 1007.2
20260506190901 65 228 5.0 15.0 0.00 0.20 0.20 87 1007.3
20260506190356 64 165 4.0 11.0 0.00 0.20 0.20 87 1007.5
20260506185859 64 209 3.0 10.0 0.00 0.20 0.20 88 1007.5
20260506185359 64 180 4.0 10.0 0.00 0.20 0.20 88 1007.6
20260506184855 63 209 5.0 12.0 0.00 0.20 0.20 88 1007.6
20260506184356 63 207 5.0 12.0 0.00 0.20 0.20 88 1007.7
20260506183854 63 154 4.0 11.0 0.00 0.20 0.20 89 1007.7
20260506183348 63 221 4.0 12.0 0.00 0.20 0.20 89 1007.7
20260506182843 62 202 6.0 12.0 0.00 0.20 0.20 89 1007.8
20260506182343 62 211 5.0 13.0 0.00 0.20 0.20 89 1007.8
20260506182110 62 212 5.0 13.0 0.00 0.20 0.20 89 1007.8
20260506181343 62 209 5.0 11.0 0.00 0.20 0.20 89 1008.0
20260506180843 62 215 4.0 11.0 0.00 0.20 0.20 89 1008.1
20260506180343 62 207 4.0 11.0 0.00 0.20 0.20 89 1008.2
20260506175846 62 144 5.0 11.0 0.00 0.20 0.20 89 1008.1
20260506175343 62 207 6.0 14.0 0.00 0.20 0.20 89 1008.0
20260506174844 62 222 6.0 14.0 0.00 0.20 0.20 89 1008.1
20260506174349 62 220 6.0 15.0 0.00 0.20 0.20 89 1007.9
20260506173842 61 186 7.0 16.0 0.00 0.20 0.20 89 1007.9
20260506173344 61 247 6.0 16.0 0.00 0.20 0.20 89 1008.0
20260506172843 61 153 5.0 14.0 0.00 0.20 0.20 89 1008.1
20260506172349 61 165 7.0 14.0 0.00 0.20 0.20 89 1008.0
20260506171836 61 221 7.0 14.0 0.00 0.20 0.20 89 1008.0
20260506171333 61 207 6.0 14.0 0.00 0.20 0.20 89 1008.0
20260506170833 61 154 6.0 17.0 0.00 0.20 0.20 89 1007.9
20260506170329 61 230 6.0 17.0 0.01 0.20 0.20 89 1007.9
20260506165834 61 268 5.0 12.0 0.01 0.20 0.20 90 1008.0
20260506165555 61 194 5.0 15.0 0.01 0.20 0.20 90 1008.0
20260506164830 61 180 6.0 18.0 0.02 0.20 0.20 90 1008.2
20260506164330 61 228 5.0 18.0 0.02 0.20 0.20 90 1008.2
20260506163831 61 136 5.0 11.0 0.04 0.20 0.20 90 1008.3
20260506163329 61 217 5.0 15.0 0.05 0.20 0.20 90 1008.2
20260506162829 61 180 5.0 15.0 0.06 0.20 0.20 90 1008.3
20260506162331 61 209 5.0 15.0 0.07 0.20 0.20 90 1008.4
20260506161829 61 147 5.0 15.0 0.08 0.20 0.20 90 1008.4
20260506161544 62 311 5.0 15.0 0.09 0.20 0.20 90 1008.3
20260506160825 61 160 5.0 15.0 0.09 0.20 0.20 90 1008.4
20260506160325 61 138 5.0 14.0 0.09 0.19 0.19 90 1008.3
20260506155825 61 207 5.0 14.0 0.09 0.19 0.19 90 1008.1
20260506155541 61 184 5.0 16.0 0.10 0.19 0.19 90 1008.4
20260506154824 61 140 6.0 16.0 0.09 0.18 0.18 90 1008.7
20260506154326 61 165 5.0 16.0 0.10 0.18 0.18 90 1008.9
20260506154040 61 146 4.0 14.0 0.09 0.15 0.15 90 1009.0
20260506153924 61 133 3.0 14.0 0.09 0.16 0.17 90 1008.9
20260506152828 61 145 3.0 9.0 0.08 0.14 0.14 89 1009.2
20260506152325 61 111 4.0 10.0 0.08 0.13 0.13 89 1009.2
20260506151825 61 169 4.0 12.0 0.07 0.12 0.12 89 1009.3
20260506151327 61 254 3.0 12.0 0.07 0.11 0.11 89 1009.3
20260506150829 61 227 3.0 9.0 0.07 0.11 0.11 89 1009.3
20260506150326 61 190 3.0 14.0 0.07 0.10 0.10 89 1009.1
20260506145825 61 184 4.0 14.0 0.07 0.10 0.10 89 1009.1
20260506145326 61 164 4.0 12.0 0.07 0.09 0.09 89 1009.1
20260506144827 61 194 5.0 12.0 0.08 0.09 0.09 89 1009.0
20260506144325 61 142 5.0 15.0 0.08 0.08 0.08 89 1009.0
20260506143826 62 136 5.0 15.0 0.07 0.07 0.07 89 1009.0
20260506143326 62 161 4.0 12.0 0.06 0.06 0.06 89 1009.1
20260506142825 62 252 3.0 12.0 0.06 0.06 0.06 89 1009.1
20260506142800 62 200 3.0 12.0 0.05 0.05 0.05 88 1009.2
20260506141824 62 193 3.0 10.0 0.05 0.05 0.05 88 1009.2
20260506141328 62 238 3.0 10.0 0.04 0.04 0.04 88 1009.1
20260506140826 62 163 3.0 11.0 0.04 0.04 0.04 88 1009.1
20260506140325 62 172 4.0 11.0 0.03 0.03 0.03 87 1009.1
20260506135825 62 169 4.0 8.0 0.03 0.03 0.03 87 1009.1
20260506135325 62 130 4.0 11.0 0.02 0.02 0.02 86 1009.1
20260506135043 62 181 4.0 15.0 0.01 0.01 0.01 85 1009.2
20260506134539 63 355 3.0 15.0 0.00 0.00 0.00 84 1009.1
20260506133806 63 210 4.0 14.0 0.00 0.00 0.00 84 1009.0
20260506133307 63 157 4.0 13.0 0.00 0.00 0.00 83 1008.9
20260506132754 63 223 4.0 12.0 0.00 0.00 0.00 83 1009.1
20260506132246 64 155 5.0 12.0 0.00 0.00 0.00 82 1009.0
20260506131739 64 225 4.0 10.0 0.00 0.00 0.00 82 1009.0
20260506131236 64 202 4.0 16.0 0.00 0.00 0.00 82 1009.1
20260506130730 64 232 4.0 16.0 0.00 0.00 0.00 81 1009.1
20260506130224 64 115 4.0 13.0 0.00 0.00 0.00 82 1009.2
20260506125722 64 187 5.0 13.0 0.00 0.00 0.00 81 1009.1
20260506125222 64 221 5.0 12.0 0.00 0.00 0.00 81 1009.2
20260506124729 64 127 6.0 12.0 0.00 0.00 0.00 81 1009.2
20260506124223 64 148 5.0 16.0 0.00 0.00 0.00 80 1009.2
20260506123724 64 206 6.0 16.0 0.00 0.00 0.00 79 1009.3
20260506123658 65 223 7.0 19.0 0.00 0.00 0.00 78 1009.3
20260506122720 65 130 7.0 19.0 0.00 0.00 0.00 78 1009.4
20260506122221 65 226 5.0 14.0 0.00 0.00 0.00 77 1009.2
20260506121720 65 219 5.0 13.0 0.00 0.00 0.00 78 1009.1
20260506121222 65 225 7.0 19.0 0.00 0.00 0.00 78 1009.0
20260506120950 65 157 7.0 19.0 0.00 0.00 0.00 78 1008.9
20260506120220 65 191 6.0 16.0 0.00 0.00 0.00 78 1009.0
20260506115947 65 190 6.0 17.0 0.00 0.00 0.00 78 1008.9
20260506115223 65 196 6.0 17.0 0.00 0.00 0.00 78 1008.9
20260506114722 65 188 6.0 12.0 0.00 0.00 0.00 78 1008.7
20260506114222 65 254 6.0 16.0 0.00 0.00 0.00 78 1008.7
20260506113721 65 200 6.0 16.0 0.00 0.00 0.00 78 1008.7
20260506113216 64 207 5.0 15.0 0.00 0.00 0.00 78 1008.6
20260506112708 64 212 5.0 15.0 0.00 0.00 0.00 78 1008.7
20260506112215 64 205 6.0 16.0 0.00 0.00 0.00 78 1008.6
20260506111656 64 161 6.0 16.0 0.00 0.00 0.00 78 1008.5
20260506111150 64 121 5.0 13.0 0.00 0.00 0.00 78 1008.5
20260506110643 64 199 5.0 14.0 0.00 0.00 0.00 78 1008.5
20260506110141 64 225 5.0 14.0 0.00 0.00 0.00 79 1008.5
20260506105631 64 192 5.0 11.0 0.00 0.00 0.00 79 1008.4
20260506105125 64 118 6.0 16.0 0.00 0.00 0.00 79 1008.3
20260506104619 64 242 7.0 16.0 0.00 0.00 0.00 78 1008.4
20260506104113 64 161 6.0 19.0 0.00 0.00 0.00 78 1008.4
20260506103609 64 188 6.0 19.0 0.00 0.00 0.00 78 1008.3
20260506103103 64 194 6.0 15.0 0.00 0.00 0.00 79 1008.2
20260506102555 64 202 5.0 15.0 0.00 0.00 0.00 79 1008.4
20260506102051 64 163 5.0 13.0 0.00 0.00 0.00 79 1008.3
20260506101809 64 284 6.0 13.0 0.00 0.00 0.00 78 1008.3
20260506101038 64 162 5.0 12.0 0.00 0.00 0.00 78 1008.2
20260506100533 64 171 5.0 13.0 0.00 0.00 0.00 78 1008.2
20260506100026 64 159 6.0 15.0 0.00 0.00 0.00 78 1008.2
20260506095521 64 238 6.0 17.0 0.00 0.00 0.00 78 1008.3
20260506095239 64 196 5.0 17.0 0.00 0.00 0.00 78 1008.3
20260506094508 64 205 4.0 13.0 0.00 0.00 0.00 78 1008.2
20260506094002 64 221 4.0 15.0 0.00 0.00 0.00 77 1008.2
20260506093456 65 146 4.0 15.0 0.00 0.00 0.00 77 1008.2
20260506092950 65 171 4.0 11.0 0.00 0.00 0.00 76 1008.3
20260506092707 65 200 4.0 11.0 0.00 0.00 0.00 76 1008.4
20260506092208 65 192 4.0 11.0 0.00 0.00 0.00 76 1008.5
20260506091434 65 195 5.0 12.0 0.00 0.00 0.00 75 1008.4
20260506090926 65 178 5.0 12.0 0.00 0.00 0.00 75 1008.4
20260506090641 65 148 4.0 12.0 0.00 0.00 0.00 75 1008.5
20260506085914 66 132 5.0 15.0 0.00 0.00 0.00 74 1008.6
20260506085635 66 148 6.0 15.0 0.00 0.00 0.00 74 1008.5
20260506085126 66 171 5.0 12.0 0.00 0.00 0.00 74 1008.6
20260506084359 66 276 4.0 11.0 0.00 0.00 0.00 74 1008.6
20260506083859 66 159 5.0 10.0 0.00 0.00 0.00 73 1008.5
20260506083401 66 245 4.0 23.0 0.00 0.00 0.00 73 1008.6
20260506082858 66 152 4.0 23.0 0.00 0.00 0.00 73 1008.6
20260506082622 66 159 5.0 12.0 0.00 0.00 0.00 72 1008.6
20260506082122 67 165 5.0 15.0 0.00 0.00 0.00 72 1008.5
20260506081401 67 175 5.0 15.0 0.00 0.00 0.00 72 1008.5
20260506080857 67 198 4.0 10.0 0.00 0.00 0.00 72 1008.6
20260506080401 67 155 4.0 10.0 0.00 0.00 0.00 71 1008.6
20260506073356 67 128 5.0 12.0 0.00 0.00 0.00 70 1008.8
20260506073115 67 195 5.0 11.0 0.00 0.00 0.00 69 1008.7
20260506072357 67 96 4.0 10.0 0.00 0.00 0.00 69 1008.8
20260506071849 67 178 4.0 10.0 0.00 0.00 0.00 69 1008.8
20260506071349 67 213 4.0 11.0 0.00 0.00 0.00 69 1008.9
20260506070850 67 226 4.0 13.0 0.00 0.00 0.00 69 1008.9
20260506070844 67 147 4.0 13.0 0.00 0.00 0.00 69 1008.9
20260506070110 67 200 4.0 10.0 0.00 0.00 0.00 68 1009.0
20260506062341 67 146 3.0 7.0 0.00 0.00 0.00 67 1009.3
20260506062335 67 174 4.0 8.0 0.00 0.00 0.00 67 1009.4
20260506061343 67 171 4.0 10.0 0.00 0.00 0.00 67 1009.4
20260506060853 67 141 4.0 10.0 0.00 0.00 0.00 67 1009.4
20260506060339 67 163 3.0 8.0 0.00 0.00 0.00 66 1009.4
20260506051339 67 149 3.0 8.0 0.00 0.00 0.00 65 1009.7
20260506050842 67 125 3.0 7.0 0.00 0.00 0.00 64 1009.7
20260506050336 67 146 3.0 7.0 0.00 0.00 0.00 64 1009.8
20260506044828 67 161 3.0 9.0 0.00 0.00 0.00 63 1009.9
20260506044555 67 160 3.0 10.0 0.00 0.00 0.00 63 1009.8
20260506043830 67 165 3.0 10.0 0.00 0.00 0.00 63 1009.9
20260506043558 67 166 3.0 9.0 0.00 0.00 0.00 63 1009.9
20260506042834 67 191 3.0 8.0 0.00 0.00 0.00 63 1009.9
20260506042331 67 201 3.0 9.0 0.00 0.00 0.00 63 1009.9
20260506041827 67 230 4.0 11.0 0.00 0.00 0.00 63 1009.9
20260506041554 67 198 4.0 11.0 0.00 0.00 0.00 63 1009.9